FR89YH EPMO-EIDW

Flight info

Callsign FR89YH
Flight time N/A
Altitude 38000
Route OLILA L621 GRUDA L23 BINKA DCT AMISO DCT RENEQ P39 ROVNI DCT GOLES UL975 DESIG UL70 GUNTU Z196 LELDO M145 BAGSO BAGSO4L
Aircraft B38M/M-SDE1FGHILORVWXY/HB1

Departure

Time 2026-04-18 09:28
Airport Warsaw Modlin Airport (EPMO)

Arrival

Time N/A
Airport Dublin Airport (EIDW)
Time Latitude Longitude Altitude Speed Heading
2026-04-18 09:17 52.44756 20.65341 340 ft 0 kts 206°
2026-04-18 09:19 52.44765 20.65348 335 ft 2 kts 201°
2026-04-18 09:20 52.44781 20.65356 340 ft 2 kts 188°
2026-04-18 09:20 52.44796 20.65350 337 ft 2 kts 109°
2026-04-18 09:20 52.44797 20.65332 335 ft 1 kts 84°
2026-04-18 09:20 52.44797 20.65331 335 ft 0 kts 84°
2026-04-18 09:23 52.44797 20.65332 340 ft 1 kts 84°
2026-04-18 09:23 52.44803 20.65383 338 ft 10 kts 81°
2026-04-18 09:23 52.44819 20.65557 338 ft 20 kts 82°
2026-04-18 09:23 52.44840 20.65796 337 ft 23 kts 82°
2026-04-18 09:24 52.44866 20.66073 336 ft 27 kts 81°
2026-04-18 09:24 52.44894 20.66374 337 ft 26 kts 82°
2026-04-18 09:24 52.44924 20.66682 339 ft 26 kts 81°
2026-04-18 09:24 52.44950 20.66964 341 ft 22 kts 82°
2026-04-18 09:25 52.45019 20.67077 341 ft 11 kts 355°
2026-04-18 09:25 52.45110 20.67056 337 ft 15 kts 352°
2026-04-18 09:25 52.45187 20.67031 340 ft 0 kts 339°
2026-04-18 09:26 52.45190 20.67030 340 ft 2 kts 339°
2026-04-18 09:26 52.45216 20.67014 340 ft 6 kts 340°
2026-04-18 09:26 52.45264 20.66981 341 ft 9 kts 344°
2026-04-18 09:27 52.45284 20.66959 349 ft 2 kts 284°
2026-04-18 09:27 52.45285 20.66929 337 ft 3 kts 261°
2026-04-18 09:27 52.45272 20.66795 338 ft 37 kts 262°
2026-04-18 09:27 52.45191 20.65903 349 ft 119 kts 261°
2026-04-18 09:28 52.45041 20.64217 455 ft 174 kts 263°
2026-04-18 09:28 52.44871 20.62207 1380 ft 180 kts 263°
2026-04-18 09:28 52.44646 20.60140 2389 ft 186 kts 262°
2026-04-18 09:28 52.44405 20.58005 3255 ft 197 kts 262°
2026-04-18 09:29 52.44359 20.55683 3999 ft 215 kts 286°
2026-04-18 09:29 52.45144 20.53494 4655 ft 237 kts 321°
2026-04-18 09:29 52.46665 20.52350 5455 ft 249 kts 353°
2026-04-18 09:29 52.48413 20.52200 6329 ft 261 kts 357°
2026-04-18 09:30 52.50223 20.52040 7427 ft 261 kts 357°
2026-04-18 09:30 52.52052 20.51873 8442 ft 265 kts 357°
2026-04-18 09:30 52.53915 20.51707 9406 ft 270 kts 357°
2026-04-18 09:30 52.55804 20.51536 10377 ft 275 kts 357°
2026-04-18 09:31 52.57754 20.51360 11064 ft 288 kts 357°
2026-04-18 09:31 52.59816 20.51174 11583 ft 305 kts 357°
2026-04-18 09:31 52.61963 20.50764 12212 ft 317 kts 352°
2026-04-18 09:31 52.64148 20.50230 12931 ft 324 kts 351°
2026-04-18 09:32 52.66277 20.49049 13817 ft 327 kts 330°
2026-04-18 09:32 52.67993 20.46558 14572 ft 333 kts 308°
2026-04-18 09:32 52.69034 20.43132 15331 ft 339 kts 288°
2026-04-18 09:32 52.69563 20.39312 16063 ft 343 kts 285°
2026-04-18 09:33 52.70101 20.35462 16774 ft 346 kts 288°
2026-04-18 09:33 52.71152 20.31931 17498 ft 344 kts 308°
2026-04-18 09:33 52.72701 20.28902 18163 ft 348 kts 312°
2026-04-18 09:33 52.74292 20.25876 18796 ft 351 kts 312°
2026-04-18 09:34 52.75885 20.22884 19384 ft 353 kts 313°
2026-04-18 09:34 52.77515 20.19849 19994 ft 354 kts 313°
2026-04-18 09:34 52.79161 20.16798 20586 ft 357 kts 314°
2026-04-18 09:34 52.80809 20.13722 21166 ft 359 kts 312°
2026-04-18 09:35 52.82415 20.10533 21742 ft 362 kts 312°
2026-04-18 09:35 52.84032 20.07327 22308 ft 364 kts 313°
2026-04-18 09:35 52.85661 20.04101 22871 ft 367 kts 313°
2026-04-18 09:35 52.87301 20.00852 23428 ft 369 kts 313°
2026-04-18 09:36 52.88954 19.97576 23929 ft 372 kts 313°
2026-04-18 09:36 52.90590 19.94327 24376 ft 373 kts 313°
2026-04-18 09:36 52.92255 19.91017 24828 ft 375 kts 313°
2026-04-18 09:36 52.93928 19.87688 25277 ft 377 kts 313°
2026-04-18 09:37 52.95610 19.84338 25721 ft 378 kts 313°
2026-04-18 09:37 52.97296 19.80974 26138 ft 380 kts 313°
2026-04-18 09:37 52.98986 19.77596 26574 ft 382 kts 313°
2026-04-18 09:37 53.00688 19.74191 26984 ft 384 kts 313°
2026-04-18 09:38 53.02396 19.70768 27399 ft 385 kts 313°
2026-04-18 09:38 53.04086 19.67378 27795 ft 387 kts 313°
2026-04-18 09:38 53.05813 19.63933 28186 ft 388 kts 315°
2026-04-18 09:38 53.07700 19.60732 28547 ft 389 kts 318°
2026-04-18 09:39 53.09606 19.57519 28920 ft 391 kts 317°
2026-04-18 09:39 53.11509 19.54275 29298 ft 393 kts 317°
2026-04-18 09:39 53.13418 19.51002 29654 ft 395 kts 317°
2026-04-18 09:39 53.15330 19.47712 30024 ft 396 kts 317°
2026-04-18 09:40 53.17250 19.44400 30355 ft 398 kts 317°
2026-04-18 09:40 53.19152 19.41116 30647 ft 400 kts 317°
2026-04-18 09:40 53.21088 19.37767 30937 ft 402 kts 317°
2026-04-18 09:40 53.22991 19.34340 31229 ft 404 kts 314°
2026-04-18 09:41 53.24830 19.30786 31515 ft 405 kts 314°
2026-04-18 09:41 53.26685 19.27224 31798 ft 407 kts 314°
2026-04-18 09:41 53.28548 19.23654 32078 ft 408 kts 314°
2026-04-18 09:41 53.30417 19.20073 32437 ft 408 kts 314°
2026-04-18 09:42 53.32275 19.16511 32864 ft 405 kts 314°
2026-04-18 09:42 53.34098 19.13011 33262 ft 404 kts 314°
2026-04-18 09:42 53.35940 19.09468 33623 ft 403 kts 314°
2026-04-18 09:42 53.37776 19.05933 34006 ft 402 kts 314°
2026-04-18 09:43 53.39605 19.02406 34364 ft 400 kts 314°
2026-04-18 09:43 53.41428 18.98885 34657 ft 400 kts 314°
2026-04-18 09:43 53.43252 18.95359 34901 ft 400 kts 314°
2026-04-18 09:43 53.45074 18.91830 35169 ft 400 kts 314°
2026-04-18 09:44 53.46895 18.88299 35414 ft 400 kts 314°
2026-04-18 09:44 53.48103 18.85954 35580 ft 401 kts 313°
2026-04-18 09:44 53.50484 18.81219 35904 ft 402 kts 307°
2026-04-18 09:44 53.51762 18.77019 36153 ft 409 kts 292°
2026-04-18 09:45 53.52363 18.72325 36378 ft 414 kts 283°
2026-04-18 09:45 53.52786 18.67521 36549 ft 416 kts 283°
2026-04-18 09:45 53.53171 18.62699 36761 ft 417 kts 282°
2026-04-18 09:45 53.53534 18.57867 37001 ft 416 kts 282°
2026-04-18 09:46 53.53765 18.54672 37147 ft 416 kts 282°
2026-04-18 09:46 53.54106 18.49845 37357 ft 416 kts 281°
2026-04-18 09:46 53.54441 18.45016 37575 ft 416 kts 281°
2026-04-18 09:46 53.54880 18.38621 37845 ft 415 kts 281°
2026-04-18 09:47 53.55209 18.33799 38046 ft 415 kts 281°
2026-04-18 09:47 53.55536 18.28980 38218 ft 415 kts 281°
2026-04-18 09:47 53.56075 18.20965 38238 ft 414 kts 281°
2026-04-18 09:48 53.56714 18.11348 38238 ft 414 kts 281°
2026-04-18 09:48 53.57448 18.00166 38237 ft 414 kts 280°
2026-04-18 09:49 53.57966 17.92176 38238 ft 414 kts 280°
2026-04-18 09:49 53.58585 17.82547 38238 ft 414 kts 280°
2026-04-18 09:50 53.59195 17.72914 38232 ft 414 kts 280°
2026-04-18 09:50 53.59798 17.63287 38236 ft 414 kts 280°
2026-04-18 09:51 53.60393 17.53649 38237 ft 414 kts 279°
2026-04-18 09:51 53.60977 17.44077 38237 ft 414 kts 279°
2026-04-18 09:52 53.61556 17.34433 38236 ft 414 kts 279°
2026-04-18 09:52 53.62129 17.24777 38236 ft 414 kts 279°
2026-04-18 09:53 53.62690 17.15189 38235 ft 414 kts 279°
2026-04-18 09:53 53.63248 17.05522 38231 ft 415 kts 279°
2026-04-18 09:54 53.63799 16.95851 38236 ft 415 kts 279°
2026-04-18 09:54 53.64340 16.86163 38235 ft 415 kts 278°
2026-04-18 09:55 53.64875 16.76470 38235 ft 415 kts 278°
2026-04-18 09:55 53.65398 16.66838 38234 ft 416 kts 278°
2026-04-18 09:56 53.65918 16.57130 38231 ft 416 kts 278°
2026-04-18 09:56 53.66430 16.47425 38231 ft 416 kts 278°
2026-04-18 09:57 53.66934 16.37711 38231 ft 416 kts 278°
2026-04-18 09:57 53.67427 16.28061 38236 ft 416 kts 278°
2026-04-18 09:58 53.67915 16.18349 38232 ft 416 kts 277°
2026-04-18 09:58 53.68396 16.08611 38229 ft 416 kts 277°
2026-04-18 09:59 53.68869 15.98894 38233 ft 416 kts 277°
2026-04-18 10:00 53.69561 15.84386 38230 ft 415 kts 277°
2026-04-18 10:00 53.70016 15.74675 38233 ft 415 kts 277°
2026-04-18 10:01 53.70463 15.64971 38234 ft 415 kts 277°
2026-04-18 10:01 53.70902 15.55273 38236 ft 415 kts 277°
2026-04-18 10:02 53.71330 15.45630 38233 ft 415 kts 276°
2026-04-18 10:02 53.71754 15.35925 38234 ft 414 kts 276°
2026-04-18 10:03 53.72169 15.26223 38210 ft 414 kts 276°
2026-04-18 10:03 53.72576 15.16531 38246 ft 414 kts 276°
2026-04-18 10:04 53.73191 15.06890 38242 ft 413 kts 279°
2026-04-18 10:04 53.73898 14.97328 38234 ft 413 kts 279°
2026-04-18 10:05 53.74584 14.87691 38237 ft 413 kts 278°
2026-04-18 10:05 53.75261 14.78054 38234 ft 413 kts 278°
2026-04-18 10:06 53.75930 14.68410 38236 ft 413 kts 278°
2026-04-18 10:06 53.76591 14.58776 38228 ft 413 kts 278°
2026-04-18 10:07 53.77239 14.49206 38232 ft 413 kts 278°
2026-04-18 10:07 53.77885 14.39554 38236 ft 413 kts 278°
2026-04-18 10:08 53.78523 14.29906 38238 ft 413 kts 278°
2026-04-18 10:08 53.79153 14.20253 38240 ft 413 kts 277°
2026-04-18 10:09 53.79771 14.10668 38236 ft 413 kts 277°
2026-04-18 10:09 53.80385 14.01017 38236 ft 413 kts 277°
2026-04-18 10:10 53.80992 13.91363 38236 ft 413 kts 277°
2026-04-18 10:10 53.81591 13.81700 38231 ft 413 kts 277°
2026-04-18 10:11 53.82179 13.72097 38228 ft 413 kts 277°
2026-04-18 10:11 53.82762 13.62436 38213 ft 413 kts 277°
2026-04-18 10:12 53.83338 13.52764 38212 ft 413 kts 277°
2026-04-18 10:12 53.83905 13.43099 38210 ft 413 kts 276°
2026-04-18 10:13 53.84461 13.33496 38207 ft 413 kts 276°
2026-04-18 10:13 53.85013 13.23830 38206 ft 412 kts 276°
2026-04-18 10:14 53.85557 13.14154 38204 ft 413 kts 276°
2026-04-18 10:14 53.86094 13.04483 38203 ft 413 kts 276°
2026-04-18 10:15 53.86623 12.94793 38198 ft 413 kts 276°
2026-04-18 10:15 53.87144 12.85115 38197 ft 413 kts 276°
2026-04-18 10:16 53.87653 12.75501 38194 ft 413 kts 276°
2026-04-18 10:16 53.88160 12.65803 38188 ft 413 kts 276°
2026-04-18 10:17 53.88657 12.56117 38185 ft 412 kts 275°
2026-04-18 10:17 53.89147 12.46432 38188 ft 412 kts 275°
2026-04-18 10:18 53.89628 12.36751 38185 ft 412 kts 275°
2026-04-18 10:18 53.90102 12.27072 38185 ft 412 kts 275°
2026-04-18 10:19 53.90565 12.17450 38187 ft 412 kts 275°
2026-04-18 10:19 53.91023 12.07773 38182 ft 412 kts 275°
2026-04-18 10:20 53.91472 11.98085 38179 ft 412 kts 275°
2026-04-18 10:20 53.91915 11.88399 38178 ft 412 kts 275°
2026-04-18 10:21 53.92347 11.78772 38174 ft 412 kts 275°
2026-04-18 10:21 53.92774 11.69086 38164 ft 412 kts 275°
2026-04-18 10:22 53.93193 11.59393 38166 ft 412 kts 275°
2026-04-18 10:22 53.93901 11.49753 38164 ft 412 kts 277°
2026-04-18 10:23 53.94601 11.40097 38156 ft 412 kts 277°
2026-04-18 10:23 53.95283 11.30500 38164 ft 412 kts 277°
2026-04-18 10:24 53.95960 11.20843 38157 ft 412 kts 276°
2026-04-18 10:24 53.96630 11.11168 38153 ft 412 kts 276°
2026-04-18 10:25 53.97293 11.01490 38153 ft 412 kts 276°
2026-04-18 10:25 53.97943 10.91877 38154 ft 413 kts 276°
2026-04-18 10:26 53.98591 10.82186 38156 ft 413 kts 276°
2026-04-18 10:26 53.99230 10.72495 38156 ft 413 kts 276°
2026-04-18 10:27 53.99862 10.62799 38153 ft 413 kts 276°
2026-04-18 10:27 54.00487 10.53090 38153 ft 413 kts 276°
2026-04-18 10:28 54.01100 10.43451 38147 ft 413 kts 276°
2026-04-18 10:28 54.01709 10.33730 38145 ft 413 kts 276°
2026-04-18 10:29 54.02289 10.24364 38142 ft 414 kts 276°
2026-04-18 10:29 54.02884 10.14635 38145 ft 414 kts 275°
2026-04-18 10:30 54.03466 10.04970 38144 ft 414 kts 275°
2026-04-18 10:30 54.04045 9.95229 38139 ft 414 kts 275°
2026-04-18 10:31 54.04616 9.85495 38144 ft 414 kts 275°
2026-04-18 10:31 54.05179 9.75756 38139 ft 414 kts 275°
2026-04-18 10:32 54.05731 9.66073 38139 ft 413 kts 275°
2026-04-18 10:32 54.06278 9.56337 38144 ft 413 kts 275°
2026-04-18 10:33 54.06816 9.46601 38136 ft 413 kts 275°
2026-04-18 10:33 54.07347 9.36876 38134 ft 413 kts 275°
2026-04-18 10:34 54.07866 9.27203 38134 ft 412 kts 275°
2026-04-18 10:34 54.08380 9.17477 38138 ft 412 kts 275°
2026-04-18 10:35 54.08886 9.07757 38142 ft 412 kts 275°
2026-04-18 10:35 54.09384 8.98053 38145 ft 411 kts 275°
2026-04-18 10:36 54.09870 8.88409 38148 ft 411 kts 274°
2026-04-18 10:36 54.10351 8.78712 38150 ft 411 kts 274°
2026-04-18 10:37 54.10824 8.69021 38153 ft 410 kts 274°
2026-04-18 10:37 54.11289 8.59328 38150 ft 410 kts 274°
2026-04-18 10:38 54.11746 8.49639 38152 ft 410 kts 274°
2026-04-18 10:38 54.12193 8.40014 38152 ft 410 kts 274°
2026-04-18 10:39 54.12633 8.30327 38155 ft 410 kts 274°
2026-04-18 10:39 54.13066 8.20650 38157 ft 409 kts 274°
2026-04-18 10:40 54.13492 8.10971 38158 ft 409 kts 274°
2026-04-18 10:40 54.13906 8.01358 38162 ft 409 kts 274°
2026-04-18 10:41 54.14316 7.91687 38162 ft 409 kts 274°
2026-04-18 10:41 54.14717 7.82011 38155 ft 409 kts 274°
2026-04-18 10:42 54.15111 7.72341 38163 ft 408 kts 273°
2026-04-18 10:42 54.15493 7.62746 38161 ft 408 kts 273°
2026-04-18 10:43 54.15871 7.53088 38163 ft 408 kts 273°
2026-04-18 10:43 54.16241 7.43423 38162 ft 408 kts 273°
2026-04-18 10:44 54.16603 7.33772 38155 ft 407 kts 273°
2026-04-18 10:44 54.16954 7.24187 38157 ft 407 kts 273°
2026-04-18 10:45 54.17300 7.14543 38160 ft 407 kts 273°
2026-04-18 10:45 54.17638 7.04902 38158 ft 407 kts 273°
2026-04-18 10:46 54.17968 6.95265 38154 ft 406 kts 273°
2026-04-18 10:46 54.18288 6.85703 38148 ft 406 kts 273°
2026-04-18 10:47 54.18602 6.76087 38152 ft 406 kts 272°
2026-04-18 10:47 54.18908 6.66478 38163 ft 405 kts 272°
2026-04-18 10:48 54.19205 6.56939 38141 ft 405 kts 272°
2026-04-18 10:48 54.19495 6.47345 38146 ft 404 kts 272°
2026-04-18 10:49 54.19777 6.37758 38145 ft 404 kts 272°
2026-04-18 10:49 54.20052 6.28181 38147 ft 404 kts 272°
2026-04-18 10:50 54.20319 6.18597 38144 ft 404 kts 272°
2026-04-18 10:50 54.20576 6.09088 38149 ft 403 kts 272°
2026-04-18 10:51 54.20828 5.99515 38152 ft 403 kts 272°
2026-04-18 10:51 54.21072 5.89952 38150 ft 403 kts 272°
2026-04-18 10:52 54.21308 5.80396 38149 ft 403 kts 272°
2026-04-18 10:52 54.21535 5.70903 38153 ft 402 kts 272°
2026-04-18 10:53 54.21755 5.61351 38150 ft 402 kts 272°
2026-04-18 10:53 54.21968 5.51808 38149 ft 402 kts 272°
2026-04-18 10:54 54.22172 5.42335 38152 ft 401 kts 272°
2026-04-18 10:54 54.22370 5.32811 38152 ft 401 kts 272°
2026-04-18 10:55 54.22560 5.23295 38153 ft 401 kts 271°
2026-04-18 10:55 54.22742 5.13785 38150 ft 400 kts 271°
2026-04-18 10:56 54.22916 5.04289 38149 ft 400 kts 271°
2026-04-18 10:56 54.23085 4.94863 38147 ft 399 kts 271°
2026-04-18 10:57 54.23248 4.85386 38149 ft 399 kts 271°
2026-04-18 10:57 54.23403 4.75927 38148 ft 398 kts 271°
2026-04-18 10:58 54.23550 4.66546 38149 ft 397 kts 271°
2026-04-18 10:58 54.23691 4.57109 38147 ft 397 kts 271°
2026-04-18 10:59 54.23825 4.47687 38148 ft 397 kts 271°
2026-04-18 10:59 54.23952 4.38271 38147 ft 396 kts 271°
2026-04-18 11:00 54.23897 4.28933 38151 ft 395 kts 262°
2026-04-18 11:00 54.23168 4.19616 38150 ft 395 kts 263°
2026-04-18 11:01 54.22413 4.10315 38155 ft 395 kts 263°
2026-04-18 11:01 54.21642 4.01017 38154 ft 395 kts 262°
2026-04-18 11:02 54.20475 3.87133 38159 ft 396 kts 262°
2026-04-18 11:02 54.19684 3.77831 38152 ft 396 kts 262°
2026-04-18 11:03 54.18886 3.68528 38159 ft 396 kts 262°
2026-04-18 11:03 54.18080 3.59223 38156 ft 396 kts 262°
2026-04-18 11:04 54.17271 3.49981 38166 ft 396 kts 262°
2026-04-18 11:04 54.16451 3.40682 38158 ft 396 kts 262°
2026-04-18 11:05 54.15623 3.31388 38165 ft 396 kts 261°
2026-04-18 11:05 54.14789 3.22099 38155 ft 396 kts 261°
2026-04-18 11:06 54.13947 3.12817 38166 ft 396 kts 261°
2026-04-18 11:06 54.13105 3.03603 38159 ft 396 kts 261°
2026-04-18 11:07 54.12249 2.94334 38164 ft 396 kts 261°
2026-04-18 11:07 54.11388 2.85074 38164 ft 396 kts 261°
2026-04-18 11:08 54.10518 2.75815 38166 ft 395 kts 261°
2026-04-18 11:08 54.09648 2.66625 38161 ft 395 kts 261°
2026-04-18 11:09 54.08766 2.57383 38167 ft 395 kts 260°
2026-04-18 11:09 54.07876 2.48143 38164 ft 395 kts 260°
2026-04-18 11:10 54.06980 2.38916 38168 ft 395 kts 260°
2026-04-18 11:10 54.06083 2.29756 38163 ft 395 kts 260°
2026-04-18 11:11 54.05174 2.20538 38172 ft 395 kts 260°
2026-04-18 11:11 54.04256 2.11324 38169 ft 395 kts 259°
2026-04-18 11:12 54.03331 2.02101 38173 ft 395 kts 259°
2026-04-18 11:12 54.02398 1.92878 38166 ft 396 kts 259°
2026-04-18 11:13 54.01465 1.83725 38177 ft 396 kts 259°
2026-04-18 11:13 54.00519 1.74511 38169 ft 396 kts 259°
2026-04-18 11:14 53.99566 1.65315 38172 ft 396 kts 259°
2026-04-18 11:14 53.98603 1.56084 38175 ft 396 kts 259°
2026-04-18 11:15 53.97640 1.46932 38180 ft 396 kts 258°
2026-04-18 11:15 53.96663 1.37711 38172 ft 397 kts 258°
2026-04-18 11:16 53.95677 1.28489 38178 ft 397 kts 258°
2026-04-18 11:16 53.94686 1.19273 38172 ft 397 kts 258°
2026-04-18 11:17 53.93693 1.10117 38169 ft 397 kts 258°
2026-04-18 11:17 53.92685 1.00895 38167 ft 398 kts 258°
2026-04-18 11:18 53.91673 0.91677 38171 ft 398 kts 258°
2026-04-18 11:18 53.90654 0.82451 38165 ft 398 kts 258°
2026-04-18 11:19 53.89627 0.73228 38176 ft 398 kts 258°
2026-04-18 11:19 53.88522 0.64105 38162 ft 397 kts 253°
2026-04-18 11:20 53.87089 0.55055 38180 ft 398 kts 254°
2026-04-18 11:20 53.85688 0.45981 38166 ft 398 kts 254°
2026-04-18 11:21 53.84286 0.36902 38172 ft 398 kts 254°
2026-04-18 11:21 53.82889 0.27895 38161 ft 399 kts 254°
2026-04-18 11:22 53.81473 0.18820 38171 ft 399 kts 253°
2026-04-18 11:22 53.80051 0.09749 38167 ft 399 kts 253°
2026-04-18 11:23 53.78620 0.00680 38175 ft 399 kts 253°
2026-04-18 11:23 53.77899 -0.03875 38283 ft 405 kts 253°
2026-04-18 11:23 53.77176 -0.08427 38156 ft 406 kts 253°
2026-04-18 11:24 53.75696 -0.17709 38174 ft 412 kts 253°
2026-04-18 11:24 53.74188 -0.27113 38182 ft 416 kts 253°
2026-04-18 11:25 53.72668 -0.36540 38185 ft 416 kts 253°
2026-04-18 11:25 53.71139 -0.45965 38180 ft 417 kts 253°
2026-04-18 11:26 53.69611 -0.55336 38184 ft 417 kts 253°
2026-04-18 11:26 53.68066 -0.64764 38176 ft 418 kts 253°
2026-04-18 11:27 53.66509 -0.74207 38168 ft 418 kts 253°
2026-04-18 11:27 53.64941 -0.83667 38177 ft 419 kts 253°
2026-04-18 11:28 53.63374 -0.93071 38171 ft 420 kts 253°
2026-04-18 11:28 53.61791 -1.02535 38177 ft 421 kts 253°
2026-04-18 11:29 53.60470 -1.12148 38185 ft 422 kts 259°
2026-04-18 11:29 53.59496 -1.21918 38180 ft 423 kts 259°
2026-04-18 11:30 53.58541 -1.31635 38178 ft 423 kts 259°
2026-04-18 11:30 53.57576 -1.41411 38178 ft 424 kts 259°
2026-04-18 11:31 53.56600 -1.51210 38173 ft 424 kts 259°
2026-04-18 11:31 53.55622 -1.60937 38176 ft 425 kts 259°
2026-04-18 11:32 53.54630 -1.70726 38176 ft 425 kts 259°
2026-04-18 11:32 53.53627 -1.80525 38191 ft 425 kts 259°
2026-04-18 11:33 53.52868 -1.90355 38186 ft 425 kts 272°
2026-04-18 11:33 53.53386 -2.00270 38211 ft 427 kts 273°
2026-04-18 11:34 53.53914 -2.10145 38210 ft 427 kts 274°
2026-04-18 11:34 53.54460 -2.20069 38205 ft 426 kts 274°
2026-04-18 11:35 53.55001 -2.29982 38211 ft 426 kts 274°
2026-04-18 11:35 53.55533 -2.39891 38211 ft 425 kts 274°
2026-04-18 11:36 53.56054 -2.49741 38209 ft 426 kts 274°
2026-04-18 11:36 53.56571 -2.59654 38219 ft 426 kts 274°
2026-04-18 11:37 53.57079 -2.69579 38222 ft 426 kts 274°
2026-04-18 11:37 53.57580 -2.79505 38219 ft 426 kts 273°
2026-04-18 11:38 53.58072 -2.89413 37676 ft 421 kts 273°
2026-04-18 11:38 53.58310 -2.94240 37120 ft 418 kts 273°
2026-04-18 11:38 53.58546 -2.99093 36638 ft 414 kts 273°
2026-04-18 11:39 53.58777 -3.03902 36126 ft 410 kts 273°
2026-04-18 11:39 53.59005 -3.08680 35617 ft 408 kts 273°
2026-04-18 11:39 53.59228 -3.13410 35176 ft 403 kts 273°
2026-04-18 11:39 53.59571 -3.18060 34696 ft 400 kts 280°
2026-04-18 11:40 53.60145 -3.22619 34204 ft 394 kts 279°
2026-04-18 11:40 53.60683 -3.27008 33728 ft 381 kts 279°
2026-04-18 11:40 53.61212 -3.31297 33289 ft 367 kts 279°
2026-04-18 11:40 53.61720 -3.35432 32891 ft 354 kts 279°
2026-04-18 11:41 53.62211 -3.39427 32491 ft 343 kts 279°
2026-04-18 11:41 53.62695 -3.43382 32091 ft 347 kts 279°
2026-04-18 11:41 53.63184 -3.47384 31670 ft 350 kts 279°
2026-04-18 11:41 53.63674 -3.51401 31282 ft 349 kts 279°
2026-04-18 11:42 53.64159 -3.55400 30890 ft 347 kts 279°
2026-04-18 11:42 53.64632 -3.59306 30503 ft 344 kts 279°
2026-04-18 11:42 53.65151 -3.63223 30029 ft 341 kts 281°
2026-04-18 11:42 53.65724 -3.67089 29567 ft 339 kts 281°
2026-04-18 11:43 53.66284 -3.70924 29185 ft 336 kts 281°
2026-04-18 11:43 53.66837 -3.74747 28815 ft 335 kts 281°
2026-04-18 11:43 53.67386 -3.78552 28437 ft 333 kts 281°
2026-04-18 11:43 53.67929 -3.82335 28058 ft 331 kts 281°
2026-04-18 11:44 53.68462 -3.86054 27687 ft 329 kts 281°
2026-04-18 11:44 53.69004 -3.89848 27308 ft 328 kts 281°
2026-04-18 11:44 53.69528 -3.93529 26943 ft 326 kts 281°
2026-04-18 11:44 53.70055 -3.97238 26575 ft 324 kts 281°
2026-04-18 11:45 53.70578 -4.00923 26205 ft 323 kts 281°
2026-04-18 11:45 53.71098 -4.04600 25841 ft 321 kts 281°
2026-04-18 11:45 53.71604 -4.08267 25467 ft 319 kts 278°